Location: Hawaiian Village Mobile Home Park
(32.8359°N, 116.9792°W)
Time: 04:10:52
(UTC+00:00)

ADEOS - Pass Details

Date: 02 December 2021
Orbit: 792 x 795 km, 98.9° (Epoch: 23 January)

Event Time Altitude Azimuth Distance (km) Brightness Sun altitude
Rises 01:31:09 0° 200° (SSW) 3,279 7.4 -10.5°
Reaches altitude 10° 01:34:01 10° 216° (SW) 2,354 6.9 -11.1°
Maximum altitude 01:37:53 21° 264° (W) 1,717 6.4 -11.8°
Drops below altitude 10° 01:41:47 10° 313° (NW) 2,366 6.4 -12.6°
Sets 01:44:41 0° 329° (NNW) 3,300 7.0 -13.2°
